owner,sensor,date,latitude,longitude,vertical_datum,wind_speed,wind_to_direction,wind_speed_of_gust,qcFlag 
TABS,ioos:station:wmo:42047:1,2005-12-01T00:09:00Z,27.8966,-93.5973,4.0,3.709797838,137.8408998,6.21,'11111222,11111222,11111222' 
TABS,ioos:station:wmo:42047:1,2005-12-01T00:39:00Z,27.8966,-93.5973,4.0,4.401136217,148.1880948,6.99,'11111222,11111222,11111222' 
TABS,ioos:station:wmo:42047:1,2005-12-01T01:09:00Z,27.8966,-93.5973,4.0,5.080354318,143.8070878,8.26,'11111222,11111222,11111222' 
TABS,ioos:station:wmo:42047:1,2005-12-01T01:39:00Z,27.8966,-93.5973,4.0,5.195623158,145.2702655,8.51,'11111222,11111222,11111222' 
TABS,ioos:station:wmo:42047:1,2005-12-01T02:09:00Z,27.8966,-93.5973,4.0,5.288251129,151.7875776,8.78,'11111222,11111222,11111222' 
TABS,ioos:station:wmo:42047:1,2005-12-01T02:39:00Z,27.8966,-93.5973,4.0,4.774641348,167.4193688,7.35,'11111222,11111222,11111222' 
TABS,ioos:station:wmo:42047:1,2005-12-01T03:09:00Z,27.8966,-93.5973,4.0,6.09331601,159.0370095,10.64,'11111222,11111222,11111222' 
TABS,ioos:station:wmo:42047:1,2005-12-01T03:39:00Z,27.8966,-93.5973,4.0,6.321621627,161.0780599,10.22,'11111222,11111222,11111222' 
TABS,ioos:station:wmo:42047:1,2005-12-01T04:09:00Z,27.8966,-93.5973,4.0,6.440225151,154.0320295,9.01,'11111222,11111222,11111222' 
TABS,ioos:station:wmo:42047:1,2005-12-01T04:39:00Z,27.8966,-93.5973,4.0,5.89104405,155.9587763,8.89,'11111222,11111222,11111222' 
TABS,ioos:station:wmo:42047:1,2005-12-01T05:09:00Z,27.8966,-93.5973,4.0,6.445603153,157.8522101,10.34,'11111222,11111222,11111222' 
TABS,ioos:station:wmo:42047:1,2005-12-01T05:39:00Z,27.8966,-93.5973,4.0,6.272838273,156.2139856,9.43,'11111222,11111222,11111222' 
TABS,ioos:station:wmo:42047:1,2005-12-01T06:09:00Z,27.8966,-93.5973,4.0,6.293647591,162.4289928,9.74,'11111222,11111222,11111222' 
TABS,ioos:station:wmo:42047:1,2005-12-01T06:39:00Z,27.8966,-93.5973,4.0,5.832915223,154.6213881,8.79,'11111222,11111222,11111222' 
TABS,ioos:station:wmo:42047:1,2005-12-01T07:09:00Z,27.8966,-93.5973,4.0,4.881854156,159.7464172,8.09,'11111222,11111222,11111222' 
TABS,ioos:station:wmo:42047:1,2005-12-01T07:39:00Z,27.8966,-93.5973,4.0,4.180107654,157.7916041,6.46,'11111222,11111222,11111222' 
TABS,ioos:station:wmo:42047:1,2005-12-01T08:09:00Z,27.8966,-93.5973,4.0,3.812033578,155.1831376,7.63,'11111222,11111222,11111222' 
TABS,ioos:station:wmo:42047:1,2005-12-01T08:39:00Z,27.8966,-93.5973,4.0,3.730335106,168.0878488,6.24,'11111222,11111222,11111222' 
TABS,ioos:station:wmo:42047:1,2005-12-01T09:09:00Z,27.8966,-93.5973,4.0,4.026375541,172.2927428,6.64,'11111222,11111222,11111222' 
TABS,ioos:station:wmo:42047:1,2005-12-01T09:39:00Z,27.8966,-93.5973,4.0,5.246074723,170.8970135,7.73,'11111222,11111222,11111222' 
TABS,ioos:station:wmo:42047:1,2005-12-01T10:09:00Z,27.8966,-93.5973,4.0,5.011686343,181.4865903,7.75,'11111222,11111222,11111222' 
TABS,ioos:station:wmo:42047:1,2005-12-01T10:39:00Z,27.8966,-93.5973,4.0,5.331350673,181.2899508,7.58,'11111222,11111222,11111222' 
TABS,ioos:station:wmo:42047:1,2005-12-01T11:09:00Z,27.8966,-93.5973,4.0,4.941275139,188.2614799,7.62,'11111222,11111222,11111222' 
TABS,ioos:station:wmo:42047:1,2005-12-01T11:39:00Z,27.8966,-93.5973,4.0,4.307261311,189.3531678,7.68,'11111222,11111222,11111222' 
TABS,ioos:station:wmo:42047:1,2005-12-01T12:09:00Z,27.8966,-93.5973,4.0,4.276914776,185.0975983,6.97,'11111222,11111222,11111222' 
TABS,ioos:station:wmo:42047:1,2005-12-01T12:39:00Z,27.8966,-93.5973,4.0,4.615333141,187.0944143,7.31,'11111222,11111222,11111222' 
TABS,ioos:station:wmo:42047:1,2005-12-01T13:09:00Z,27.8966,-93.5973,4.0,4.552142353,186.8129754,6.93,'11111222,11111222,11111222' 
TABS,ioos:station:wmo:42047:1,2005-12-01T13:39:00Z,27.8966,-93.5973,4.0,4.749484183,176.3787342,7.2,'11111222,11111222,11111222' 
TABS,ioos:station:wmo:42047:1,2005-12-01T14:09:00Z,27.8966,-93.5973,4.0,5.190616534,180.8833104,7.43,'11111222,11111222,11111222' 
TABS,ioos:station:wmo:42047:1,2005-12-01T14:39:00Z,27.8966,-93.5973,4.0,5.255520907,186.6654485,8.29,'11111222,11111222,11111222' 
TABS,ioos:station:wmo:42047:1,2005-12-01T15:09:00Z,27.8966,-93.5973,4.0,5.158342757,186.0092024,7.77,'11111222,11111222,11111222' 
TABS,ioos:station:wmo:42047:1,2005-12-01T15:39:00Z,27.8966,-93.5973,4.0,5.143510474,177.8832419,7.67,'11111222,11111222,11111222' 
TABS,ioos:station:wmo:42047:1,2005-12-01T16:09:00Z,27.8966,-93.5973,4.0,5.160561985,176.3338515,7.8,'11111222,11111222,11111222' 
TABS,ioos:station:wmo:42047:1,2005-12-01T16:39:00Z,27.8966,-93.5973,4.0,5.154046954,170.9582537,7.77,'11111222,11111222,11111222' 
TABS,ioos:station:wmo:42047:1,2005-12-01T17:09:00Z,27.8966,-93.5973,4.0,4.632493929,184.2091855,7.69,'11111222,11111222,11111222' 
TABS,ioos:station:wmo:42047:1,2005-12-01T17:39:00Z,27.8966,-93.5973,4.0,5.690035149,180.2016003,9.74,'11111222,11111222,11111222' 
TABS,ioos:station:wmo:42047:1,2005-12-01T18:09:00Z,27.8966,-93.5973,4.0,6.43,180.0002105,9.35,'11111222,11111222,11111222' 
TABS,ioos:station:wmo:42047:1,2005-12-01T18:39:00Z,27.8966,-93.5973,4.0,6.04504756,186.1729179,9.47,'11111222,11111222,11111222' 
TABS,ioos:station:wmo:42047:1,2005-12-01T19:09:00Z,27.8966,-93.5973,4.0,5.925040084,189.1286607,8.7,'11111222,11111222,11111222' 
TABS,ioos:station:wmo:42047:1,2005-12-01T19:39:00Z,27.8966,-93.5973,4.0,5.707267297,194.7181901,8.64,'11111222,11111222,11111222' 
TABS,ioos:station:wmo:42047:1,2005-12-01T20:09:00Z,27.8966,-93.5973,4.0,5.531193361,211.6212111,8.96,'11111222,11111222,11111222' 
TABS,ioos:station:wmo:42047:1,2005-12-01T20:39:00Z,27.8966,-93.5973,4.0,3.842941582,310.7790857,6.55,'11111222,11111222,11111222' 
TABS,ioos:station:wmo:42047:1,2005-12-01T21:09:00Z,27.8966,-93.5973,4.0,6.701790805,32.69384503,9.6,'11111222,11111222,11111222' 
TABS,ioos:station:wmo:42047:1,2005-12-01T21:39:00Z,27.8966,-93.5973,4.0,6.005081182,48.10465969,8.56,'11111222,11111222,11111222' 
TABS,ioos:station:wmo:42047:1,2005-12-01T22:09:00Z,27.8966,-93.5973,4.0,5.176726765,54.98950631,8.05,'11111222,11111222,11111222' 
TABS,ioos:station:wmo:42047:1,2005-12-01T22:39:00Z,27.8966,-93.5973,4.0,4.483714978,54.71451736,7.87,'11111222,11111222,11111222' 
TABS,ioos:station:wmo:42047:1,2005-12-01T23:09:00Z,27.8966,-93.5973,4.0,3.664150652,46.54783839,5.82,'11111222,11111222,11111222' 
TABS,ioos:station:wmo:42047:1,2005-12-01T23:39:00Z,27.8966,-93.5973,4.0,3.858613741,34.76060024,6.43,'11111222,11111222,11111222' 
TABS,ioos:station:wmo:42047:1,2005-12-02T00:09:00Z,27.8966,-93.5973,4.0,4.568073992,36.54349092,6.74,'11111222,11111222,11111222' 
TABS,ioos:station:wmo:42047:1,2005-12-02T00:39:00Z,27.8966,-93.5973,4.0,4.26653255,26.14437784,6.52,'11111222,11111222,11111222' 
TABS,ioos:station:wmo:42047:1,2005-12-02T01:09:00Z,27.8966,-93.5973,4.0,3.174019534,41.4233583,5.47,'11111222,11111222,11111222' 
TABS,ioos:station:wmo:42047:1,2005-12-02T01:39:00Z,27.8966,-93.5973,4.0,2.250377746,58.07523483,4.17,'11111222,11111222,11111222' 
TABS,ioos:station:wmo:42047:1,2005-12-02T02:09:00Z,27.8966,-93.5973,4.0,2.319698256,46.04765851,4.06,'11111222,11111222,11111222' 
TABS,ioos:station:wmo:42047:1,2005-12-02T02:39:00Z,27.8966,-93.5973,4.0,2.067075228,28.30047913,4.31,'11111222,11111222,11111222' 
TABS,ioos:station:wmo:42047:1,2005-12-02T03:09:00Z,27.8966,-93.5973,4.0,1.945096399,31.97387413,4.25,'11111222,11111222,11111222' 
TABS,ioos:station:wmo:42047:1,2005-12-02T03:39:00Z,27.8966,-93.5973,4.0,2.250555487,38.14262801,4.26,'11111222,11111222,11111222' 
TABS,ioos:station:wmo:42047:1,2005-12-02T04:09:00Z,27.8966,-93.5973,4.0,3.206197124,33.93759528,5.52,'11111222,11111222,11111222' 
TABS,ioos:station:wmo:42047:1,2005-12-02T04:39:00Z,27.8966,-93.5973,4.0,3.559845502,29.44514942,5.83,'11111222,11111222,11111222' 
TABS,ioos:station:wmo:42047:1,2005-12-02T05:09:00Z,27.8966,-93.5973,4.0,6.376362599,30.74772992,9.37,'11111222,11111222,11111222' 
TABS,ioos:station:wmo:42047:1,2005-12-02T05:39:00Z,27.8966,-93.5973,4.0,6.603711078,33.76196932,9.14,'11111222,11111222,11111222' 
TABS,ioos:station:wmo:42047:1,2005-12-02T06:09:00Z,27.8966,-93.5973,4.0,6.223712718,38.21380371,8.95,'11111222,11111222,11111222' 
TABS,ioos:station:wmo:42047:1,2005-12-02T06:39:00Z,27.8966,-93.5973,4.0,6.316209306,43.6525546,8.69,'11111222,11111222,11111222' 
TABS,ioos:station:wmo:42047:1,2005-12-02T07:09:00Z,27.8966,-93.5973,4.0,6.595217965,51.33986123,9.42,'11111222,11111222,11111222' 
TABS,ioos:station:wmo:42047:1,2005-12-02T07:39:00Z,27.8966,-93.5973,4.0,6.251591797,55.95372134,9.3,'11111222,11111222,11111222' 
TABS,ioos:station:wmo:42047:1,2005-12-02T08:09:00Z,27.8966,-93.5973,4.0,5.955249785,55.53573254,8.96,'11111222,11111222,11111222' 
TABS,ioos:station:wmo:42047:1,2005-12-02T08:39:00Z,27.8966,-93.5973,4.0,5.812486559,61.53865972,8.93,'11111222,11111222,11111222' 
TABS,ioos:station:wmo:42047:1,2005-12-02T09:09:00Z,27.8966,-93.5973,4.0,5.408974025,70.22466872,8.49,'11111222,11111222,11111222' 
TABS,ioos:station:wmo:42047:1,2005-12-02T09:39:00Z,27.8966,-93.5973,4.0,5.165597739,66.85929968,8.12,'11111222,11111222,11111222' 
TABS,ioos:station:wmo:42047:1,2005-12-02T10:09:00Z,27.8966,-93.5973,4.0,4.059766003,59.83464182,6.45,'11111222,11111222,11111222' 
TABS,ioos:station:wmo:42047:1,2005-12-02T10:39:00Z,27.8966,-93.5973,4.0,4.023853874,65.79136769,6.29,'11111222,11111222,11111222' 
TABS,ioos:station:wmo:42047:1,2005-12-02T11:09:00Z,27.8966,-93.5973,4.0,4.4603251,75.5895033,7.38,'11111222,11111222,11111222' 
TABS,ioos:station:wmo:42047:1,2005-12-02T11:39:00Z,27.8966,-93.5973,4.0,4.368180399,75.5498035,7.02,'11111222,11111222,11111222' 
TABS,ioos:station:wmo:42047:1,2005-12-02T12:09:00Z,27.8966,-93.5973,4.0,4.496898931,75.31441639,7.27,'11111222,11111222,11111222' 
TABS,ioos:station:wmo:42047:1,2005-12-02T12:39:00Z,27.8966,-93.5973,4.0,3.986627648,83.37371987,6.61,'11111222,11111222,11111222' 
TABS,ioos:station:wmo:42047:1,2005-12-02T13:09:00Z,27.8966,-93.5973,4.0,4.244078227,70.88159819,6.9,'11111222,11111222,11111222' 
TABS,ioos:station:wmo:42047:1,2005-12-02T13:39:00Z,27.8966,-93.5973,4.0,3.843344897,85.22356831,6.36,'11111222,11111222,11111222' 
TABS,ioos:station:wmo:42047:1,2005-12-02T14:09:00Z,27.8966,-93.5973,4.0,3.494352587,108.6945812,6.27,'11111222,11111222,11111222' 
TABS,ioos:station:wmo:42047:1,2005-12-02T14:39:00Z,27.8966,-93.5973,4.0,3.131149949,103.8591088,5.25,'11111222,11111222,11111222' 
TABS,ioos:station:wmo:42047:1,2005-12-02T15:09:00Z,27.8966,-93.5973,4.0,3.064180151,87.00645408,5.67,'11111222,11111222,11111222' 
TABS,ioos:station:wmo:42047:1,2005-12-02T15:39:00Z,27.8966,-93.5973,4.0,2.260022124,90.25393982,6.18,'11111222,11111222,11111222' 
TABS,ioos:station:wmo:42047:1,2005-12-02T16:09:00Z,27.8966,-93.5973,4.0,2.230089684,89.48573057,4.84,'11111222,11111222,11111222' 
TABS,ioos:station:wmo:42047:1,2005-12-02T16:39:00Z,27.8966,-93.5973,4.0,2.183048327,75.13582222,4.52,'11111222,11111222,11111222' 
TABS,ioos:station:wmo:42047:1,2005-12-02T17:09:00Z,27.8966,-93.5973,4.0,2.248777446,105.2108116,4.43,'11111222,11111222,11111222' 
TABS,ioos:station:wmo:42047:1,2005-12-02T17:39:00Z,27.8966,-93.5973,4.0,2.407862122,120.7192533,5.03,'11111222,11111222,11111222' 
TABS,ioos:station:wmo:42047:1,2005-12-02T18:09:00Z,27.8966,-93.5973,4.0,2.536000789,126.8250465,5.08,'11111222,11111222,11111222' 
TABS,ioos:station:wmo:42047:1,2005-12-02T18:39:00Z,27.8966,-93.5973,4.0,2.28659135,125.567144,4.14,'11111222,11111222,11111222' 
TABS,ioos:station:wmo:42047:1,2005-12-02T19:09:00Z,27.8966,-93.5973,4.0,2.428003295,126.9646238,4.28,'11111222,11111222,11111222' 
TABS,ioos:station:wmo:42047:1,2005-12-02T19:39:00Z,27.8966,-93.5973,4.0,2.392070233,132.628479,4.52,'11111222,11111222,11111222' 
TABS,ioos:station:wmo:42047:1,2005-12-02T20:09:00Z,27.8966,-93.5973,4.0,2.248999778,133.919394,5.7,'11111222,11111222,11111222' 
TABS,ioos:station:wmo:42047:1,2005-12-02T20:39:00Z,27.8966,-93.5973,4.0,2.4807257,144.5163136,4.37,'11111222,11111222,11111222' 
TABS,ioos:station:wmo:42047:1,2005-12-02T21:09:00Z,27.8966,-93.5973,4.0,2.901344516,137.2351093,5.09,'11111222,11111222,11111222' 
TABS,ioos:station:wmo:42047:1,2005-12-02T21:39:00Z,27.8966,-93.5973,4.0,2.580561954,154.0309952,4.33,'11111222,11111222,11111222' 
TABS,ioos:station:wmo:42047:1,2005-12-02T22:09:00Z,27.8966,-93.5973,4.0,2.48783038,146.3102217,3.96,'11111222,11111222,11111222' 
TABS,ioos:station:wmo:42047:1,2005-12-02T22:39:00Z,27.8966,-93.5973,4.0,2.533870557,139.9631192,4.08,'11111222,11111222,11111222' 
TABS,ioos:station:wmo:42047:1,2005-12-02T23:09:00Z,27.8966,-93.5973,4.0,3.485111189,144.5772834,5.62,'11111222,11111222,11111222' 
TABS,ioos:station:wmo:42047:1,2005-12-02T23:39:00Z,27.8966,-93.5973,4.0,3.46070802,144.2894014,4.95,'11111222,11111222,11111222' 
TABS,ioos:station:wmo:42047:1,2005-12-03T00:09:00Z,27.8966,-93.5973,4.0,4.247469835,147.6946282,6.34,'11111222,11111222,11111222' 
TABS,ioos:station:wmo:42047:1,2005-12-03T00:39:00Z,27.8966,-93.5973,4.0,4.284040149,148.94478,6.55,'11111222,11111222,11111222' 
TABS,ioos:station:wmo:42047:1,2005-12-03T01:09:00Z,27.8966,-93.5973,4.0,4.519834068,147.9277168,6.89,'11111222,11111222,11111222' 
TABS,ioos:station:wmo:42047:1,2005-12-03T01:39:00Z,27.8966,-93.5973,4.0,4.545250268,160.3294735,7.16,'11111222,11111222,11111222' 
TABS,ioos:station:wmo:42047:1,2005-12-03T02:09:00Z,27.8966,-93.5973,4.0,4.922489208,174.5212674,7.09,'11111222,11111222,11111222' 
TABS,ioos:station:wmo:42047:1,2005-12-03T02:39:00Z,27.8966,-93.5973,4.0,4.747883739,170.2998412,6.78,'11111222,11111222,11111222' 
TABS,ioos:station:wmo:42047:1,2005-12-03T03:09:00Z,27.8966,-93.5973,4.0,3.871860018,181.7762506,6.17,'11111222,11111222,11111222' 
TABS,ioos:station:wmo:42047:1,2005-12-03T03:39:00Z,27.8966,-93.5973,4.0,6.251599795,186.6136555,9.15,'11111222,11111222,11111222' 
TABS,ioos:station:wmo:42047:1,2005-12-03T04:09:00Z,27.8966,-93.5973,4.0,4.722456988,185.5900663,7.55,'11111222,11111222,11111222' 
TABS,ioos:station:wmo:42047:1,2005-12-03T04:39:00Z,27.8966,-93.5973,4.0,7.422971103,195.871352,10.43,'11111222,11111222,11111222' 
TABS,ioos:station:wmo:42047:1,2005-12-03T05:09:00Z,27.8966,-93.5973,4.0,8.052254343,193.7948144,12.14,'11111222,11111222,11111222' 
TABS,ioos:station:wmo:42047:1,2005-12-03T05:39:00Z,27.8966,-93.5973,4.0,7.725108413,189.4625105,11.41,'11111222,11111222,11111222' 
TABS,ioos:station:wmo:42047:1,2005-12-03T06:09:00Z,27.8966,-93.5973,4.0,7.501979739,194.5921325,11.57,'11111222,11111222,11111222' 
TABS,ioos:station:wmo:42047:1,2005-12-03T06:39:00Z,27.8966,-93.5973,4.0,7.606845601,194.9315927,11.43,'11111222,11111222,11111222' 
TABS,ioos:station:wmo:42047:1,2005-12-03T07:09:00Z,27.8966,-93.5973,4.0,8.360125597,197.1129769,12.48,'11111222,11111222,11111222' 
TABS,ioos:station:wmo:42047:1,2005-12-03T07:39:00Z,27.8966,-93.5973,4.0,7.800083333,191.9872022,11.42,'11111222,11111222,11111222' 
TABS,ioos:station:wmo:42047:1,2005-12-03T08:09:00Z,27.8966,-93.5973,4.0,7.913039871,190.1172214,11.33,'11111222,11111222,11111222' 
TABS,ioos:station:wmo:42047:1,2005-12-03T08:39:00Z,27.8966,-93.5973,4.0,7.774522493,190.6741667,11.72,'11111222,11111222,11111222' 
TABS,ioos:station:wmo:42047:1,2005-12-03T09:09:00Z,27.8966,-93.5973,4.0,7.936831862,191.4092193,14.52,'11111222,11111222,11111222' 
TABS,ioos:station:wmo:42047:1,2005-12-03T09:39:00Z,27.8966,-93.5973,4.0,8.427959421,192.123428,12.86,'11111222,11111222,11111222' 
TABS,ioos:station:wmo:42047:1,2005-12-03T10:09:00Z,27.8966,-93.5973,4.0,7.638357153,201.021516,12.34,'11111222,11111222,11111222' 
TABS,ioos:station:wmo:42047:1,2005-12-03T10:39:00Z,27.8966,-93.5973,4.0,7.555163797,199.0826325,11.5,'11111222,11111222,11111222' 
TABS,ioos:station:wmo:42047:1,2005-12-03T11:09:00Z,27.8966,-93.5973,4.0,8.282396996,202.3539538,14.25,'11111222,11111222,11111222' 
TABS,ioos:station:wmo:42047:1,2005-12-03T11:39:00Z,27.8966,-93.5973,4.0,8.095677859,198.8827293,13.62,'11111222,11111222,11111222' 
TABS,ioos:station:wmo:42047:1,2005-12-03T12:09:00Z,27.8966,-93.5973,4.0,8.452810184,190.9113133,13.99,'11111222,11111222,11111222' 
TABS,ioos:station:wmo:42047:1,2005-12-03T12:39:00Z,27.8966,-93.5973,4.0,8.021196918,191.5062377,12.46,'11111222,11111222,11111222' 
TABS,ioos:station:wmo:42047:1,2005-12-03T13:09:00Z,27.8966,-93.5973,4.0,7.352278558,190.0262241,12.23,'11111222,11111222,11111222' 
TABS,ioos:station:wmo:42047:1,2005-12-03T13:39:00Z,27.8966,-93.5973,4.0,7.244597987,191.0619506,11.45,'11111222,11111222,11111222' 
TABS,ioos:station:wmo:42047:1,2005-12-03T14:09:00Z,27.8966,-93.5973,4.0,6.873208858,187.7766215,12.26,'11111222,11111222,11111222' 
TABS,ioos:station:wmo:42047:1,2005-12-03T14:39:00Z,27.8966,-93.5973,4.0,6.865777451,185.8519531,10.5,'11111222,11111222,11111222' 
TABS,ioos:station:wmo:42047:1,2005-12-03T15:09:00Z,27.8966,-93.5973,4.0,6.523779579,188.0185097,10.17,'11111222,11111222,11111222' 
TABS,ioos:station:wmo:42047:1,2005-12-03T15:39:00Z,27.8966,-93.5973,4.0,7.02342509,191.9980792,11.52,'11111222,11111222,11111222' 
TABS,ioos:station:wmo:42047:1,2005-12-03T16:09:00Z,27.8966,-93.5973,4.0,7.270020633,185.2088976,11.3,'11111222,11111222,11111222' 
TABS,ioos:station:wmo:42047:1,2005-12-03T16:39:00Z,27.8966,-93.5973,4.0,7.062811055,185.525133,11.15,'11111222,11111222,11111222' 
TABS,ioos:station:wmo:42047:1,2005-12-03T17:09:00Z,27.8966,-93.5973,4.0,7.627509423,186.3984545,11.63,'11111222,11111222,11111222' 
TABS,ioos:station:wmo:42047:1,2005-12-03T17:39:00Z,27.8966,-93.5973,4.0,7.51172417,186.7278557,12.09,'11111222,11111222,11111222' 
TABS,ioos:station:wmo:42047:1,2005-12-03T18:09:00Z,27.8966,-93.5973,4.0,7.673565012,187.9402242,11.53,'11111222,11111222,11111222' 
TABS,ioos:station:wmo:42047:1,2005-12-03T18:39:00Z,27.8966,-93.5973,4.0,7.52662607,183.8092127,10.79,'11111222,11111222,11111222' 
TABS,ioos:station:wmo:42047:1,2005-12-03T19:09:00Z,27.8966,-93.5973,4.0,7.241056553,183.1668658,11.11,'11111222,11111222,11111222' 
TABS,ioos:station:wmo:42047:1,2005-12-03T19:39:00Z,27.8966,-93.5973,4.0,6.887452359,184.0798908,10.35,'11111222,11111222,11111222' 
TABS,ioos:station:wmo:42047:1,2005-12-03T20:09:00Z,27.8966,-93.5973,4.0,7.538076678,186.4746869,10.82,'11111222,11111222,11111222' 
TABS,ioos:station:wmo:42047:1,2005-12-03T20:39:00Z,27.8966,-93.5973,4.0,8.05263311,190.0122885,12.45,'11111222,11111222,11111222' 
TABS,ioos:station:wmo:42047:1,2005-12-03T21:09:00Z,27.8966,-93.5973,4.0,7.781953482,187.2347968,12.49,'11111222,11111222,11111222' 
TABS,ioos:station:wmo:42047:1,2005-12-03T21:39:00Z,27.8966,-93.5973,4.0,7.419029586,188.3705715,11.29,'11111222,11111222,11111222' 
TABS,ioos:station:wmo:42047:1,2005-12-03T22:09:00Z,27.8966,-93.5973,4.0,6.631930337,185.6248253,10.13,'11111222,11111222,11111222' 
TABS,ioos:station:wmo:42047:1,2005-12-03T22:39:00Z,27.8966,-93.5973,4.0,6.892031631,186.3312069,10.46,'11111222,11111222,11111222' 
TABS,ioos:station:wmo:42047:1,2005-12-03T23:09:00Z,27.8966,-93.5973,4.0,7.27195297,186.1576684,11.16,'11111222,11111222,11111222' 
TABS,ioos:station:wmo:42047:1,2005-12-03T23:39:00Z,27.8966,-93.5973,4.0,7.359653524,185.1452891,11.61,'11111222,11111222,11111222' 
TABS,ioos:station:wmo:42047:1,2005-12-04T00:09:00Z,27.8966,-93.5973,4.0,6.709642315,185.3879055,10.14,'11111222,11111222,11111222' 
TABS,ioos:station:wmo:42047:1,2005-12-04T00:39:00Z,27.8966,-93.5973,4.0,7.035915008,185.7918192,11.29,'11111222,11111222,11111222' 
TABS,ioos:station:wmo:42047:1,2005-12-04T01:09:00Z,27.8966,-93.5973,4.0,7.447549933,184.9299519,11.57,'11111222,11111222,11111222' 
TABS,ioos:station:wmo:42047:1,2005-12-04T01:39:00Z,27.8966,-93.5973,4.0,7.880158628,182.9098107,12.17,'11111222,11111222,11111222' 
TABS,ioos:station:wmo:42047:1,2005-12-04T02:09:00Z,27.8966,-93.5973,4.0,6.890029028,180.1665254,11.23,'11111222,11111222,11111222' 
TABS,ioos:station:wmo:42047:1,2005-12-04T02:39:00Z,27.8966,-93.5973,4.0,7.02086177,179.1024889,10.76,'11111222,11111222,11111222' 
TABS,ioos:station:wmo:42047:1,2005-12-04T03:09:00Z,27.8966,-93.5973,4.0,6.826595052,177.4814979,11.77,'11111222,11111222,11111222' 
TABS,ioos:station:wmo:42047:1,2005-12-04T03:39:00Z,27.8966,-93.5973,4.0,7.943330536,181.659444,11.85,'11111222,11111222,11111222' 
TABS,ioos:station:wmo:42047:1,2005-12-04T04:09:00Z,27.8966,-93.5973,4.0,7.750006452,180.0741403,12.6,'11111222,11111222,11111222' 
TABS,ioos:station:wmo:42047:1,2005-12-04T04:39:00Z,27.8966,-93.5973,4.0,7.266615443,182.4452335,12.07,'11111222,11111222,11111222' 
TABS,ioos:station:wmo:42047:1,2005-12-04T05:09:00Z,27.8966,-93.5973,4.0,7.528140541,182.6649731,11.83,'11111222,11111222,11111222' 
TABS,ioos:station:wmo:42047:1,2005-12-04T05:39:00Z,27.8966,-93.5973,4.0,7.08769356,174.0885377,12.33,'11111222,11111222,11111222' 
TABS,ioos:station:wmo:42047:1,2005-12-04T06:09:00Z,27.8966,-93.5973,4.0,6.854166616,172.7922638,10.03,'11111222,11111222,11111222' 
TABS,ioos:station:wmo:42047:1,2005-12-04T06:39:00Z,27.8966,-93.5973,4.0,6.871047955,178.9995149,11.12,'11111222,11111222,11111222' 
TABS,ioos:station:wmo:42047:1,2005-12-04T07:09:00Z,27.8966,-93.5973,4.0,7.182478681,173.7657449,11.1,'11111222,11111222,11111222' 
TABS,ioos:station:wmo:42047:1,2005-12-04T07:39:00Z,27.8966,-93.5973,4.0,6.971061612,171.2540686,11.25,'11111222,11111222,11111222' 
TABS,ioos:station:wmo:42047:1,2005-12-04T08:09:00Z,27.8966,-93.5973,4.0,7.486153886,173.6346777,11.5,'11111222,11111222,11111222' 
TABS,ioos:station:wmo:42047:1,2005-12-04T08:39:00Z,27.8966,-93.5973,4.0,6.839480974,176.983027,10.89,'11111222,11111222,11111222' 
TABS,ioos:station:wmo:42047:1,2005-12-04T09:09:00Z,27.8966,-93.5973,4.0,7.308433485,173.4003089,11.03,'11111222,11111222,11111222' 
TABS,ioos:station:wmo:42047:1,2005-12-04T09:39:00Z,27.8966,-93.5973,4.0,7.186048984,170.1446726,11.37,'11111222,11111222,11111222' 
TABS,ioos:station:wmo:42047:1,2005-12-04T10:09:00Z,27.8966,-93.5973,4.0,7.3,175.7580276,12.03,'11111222,11111222,11111222' 
TABS,ioos:station:wmo:42047:1,2005-12-04T10:39:00Z,27.8966,-93.5973,4.0,7.520804478,174.812691,11.98,'11111222,11111222,11111222' 
TABS,ioos:station:wmo:42047:1,2005-12-04T11:09:00Z,27.8966,-93.5973,4.0,6.938040069,175.8675335,11.41,'11111222,11111222,11111222' 
TABS,ioos:station:wmo:42047:1,2005-12-04T11:39:00Z,27.8966,-93.5973,4.0,6.300507916,180.7277351,10.42,'11111222,11111222,11111222' 
TABS,ioos:station:wmo:42047:1,2005-12-04T12:09:00Z,27.8966,-93.5973,4.0,6.301372866,168.2801652,10.13,'11111222,11111222,11111222' 
TABS,ioos:station:wmo:42047:1,2005-12-04T12:39:00Z,27.8966,-93.5973,4.0,5.610891195,178.9790059,10.18,'11111222,11111222,11111222' 
TABS,ioos:station:wmo:42047:1,2005-12-04T13:09:00Z,27.8966,-93.5973,4.0,5.650424763,175.1271086,9.5,'11111222,11111222,11111222' 
TABS,ioos:station:wmo:42047:1,2005-12-04T13:39:00Z,27.8966,-93.5973,4.0,5.962566561,172.386535,10.57,'11111222,11111222,11111222' 
TABS,ioos:station:wmo:42047:1,2005-12-04T14:09:00Z,27.8966,-93.5973,4.0,5.929426616,174.2896307,9.98,'11111222,11111222,11111222' 
TABS,ioos:station:wmo:42047:1,2005-12-04T14:39:00Z,27.8966,-93.5973,4.0,5.695752804,169.4794507,9.93,'11111222,11111222,11111222' 
TABS,ioos:station:wmo:42047:1,2005-12-04T15:09:00Z,27.8966,-93.5973,4.0,6.004406715,177.8049522,10.28,'11111222,11111222,11111222' 
TABS,ioos:station:wmo:42047:1,2005-12-04T15:39:00Z,27.8966,-93.5973,4.0,6.81204815,174.4402762,10.87,'11111222,11111222,11111222' 
TABS,ioos:station:wmo:42047:1,2005-12-04T16:09:00Z,27.8966,-93.5973,4.0,6.083165294,176.2300012,9.68,'11111222,11111222,11111222' 
TABS,ioos:station:wmo:42047:1,2005-12-04T16:39:00Z,27.8966,-93.5973,4.0,5.271897192,174.7762751,9.96,'11111222,11111222,11111222' 
TABS,ioos:station:wmo:42047:1,2005-12-04T17:09:00Z,27.8966,-93.5973,4.0,5.303772242,172.6340238,9.43,'11111222,11111222,11111222' 
TABS,ioos:station:wmo:42047:1,2005-12-04T17:39:00Z,27.8966,-93.5973,4.0,5.316060572,171.6719786,9.43,'11111222,11111222,11111222' 
TABS,ioos:station:wmo:42047:1,2005-12-04T18:09:00Z,27.8966,-93.5973,4.0,5.836925561,174.4947455,11.09,'11111222,11111222,11111222' 
TABS,ioos:station:wmo:42047:1,2005-12-04T18:39:00Z,27.8966,-93.5973,4.0,5.589007067,171.6671576,9.66,'11111222,11111222,11111222' 